Time,TemperatureF,DewpointF,PressureIn,WindDirection,WindDirectionDegrees,WindSpeedMPH,WindSpeedGustMPH,Humidity,HourlyPrecipIn,Conditions,Clouds,dailyrainin,SoftwareType,DateUTC
2013-01-18 00:02:00,67.0,60.0,29.91,ENE,65,4.0,10.0,78,0.00,,,0.00,,2013-01-18 10:02:00,
2013-01-18 06:23:00,67.0,55.0,29.90,NE,51,3.0,11.0,66,0.00,,,0.00,,2013-01-18 16:23:00,
2013-01-18 06:33:00,67.0,56.0,29.91,NNE,13,3.0,6.0,67,0.00,,,0.00,,2013-01-18 16:33:00,
2013-01-18 06:43:00,67.0,56.0,29.91,NNE,13,3.0,6.0,67,0.00,,,0.00,,2013-01-18 16:43:00,
2013-01-18 06:52:00,67.0,56.0,29.91,North,349,1.0,6.0,69,0.00,,,0.00,,2013-01-18 16:52:00,
2013-01-18 07:02:00,67.0,57.0,29.91,NNW,331,1.0,5.0,70,0.00,,,0.00,,2013-01-18 17:02:00,
2013-01-18 07:12:00,67.0,57.0,29.91,NNW,331,1.0,5.0,70,0.00,,,0.00,,2013-01-18 17:12:00,
2013-01-18 07:22:00,67.0,57.0,29.91,NNW,336,4.0,7.0,71,0.00,,,0.00,,2013-01-18 17:22:00,
2013-01-18 07:33:00,67.0,57.0,29.91,NW,318,5.0,9.0,71,0.00,,,0.00,,2013-01-18 17:33:00,
2013-01-18 07:42:00,67.0,57.0,29.91,NW,318,5.0,9.0,71,0.00,,,0.00,,2013-01-18 17:42:00,
2013-01-18 07:53:00,67.0,58.0,29.91,NNW,335,1.0,6.0,72,0.00,,,0.00,,2013-01-18 17:53:00,
2013-01-18 08:02:00,67.0,58.0,29.92,NW,319,0.0,5.0,72,0.00,,,0.00,,2013-01-18 18:02:00,
2013-01-18 08:12:00,67.0,58.0,29.92,NW,319,0.0,5.0,72,0.00,,,0.00,,2013-01-18 18:12:00,
2013-01-18 08:22:00,68.0,58.0,29.93,NNW,342,1.0,5.0,71,0.00,,,0.00,,2013-01-18 18:22:00,
2013-01-18 08:32:00,68.0,58.0,29.94,NW,313,3.0,6.0,71,0.00,,,0.00,,2013-01-18 18:32:00,
2013-01-18 08:43:00,68.0,58.0,29.94,NW,313,3.0,6.0,71,0.00,,,0.00,,2013-01-18 18:43:00,
2013-01-18 08:52:00,68.0,58.0,29.95,NW,317,4.0,8.0,70,0.00,,,0.00,,2013-01-18 18:52:00,
2013-01-18 09:02:00,68.0,58.0,29.95,NW,313,4.0,11.0,70,0.00,,,0.00,,2013-01-18 19:02:00,
2013-01-18 09:12:00,68.0,58.0,29.95,NW,313,4.0,11.0,70,0.00,,,0.00,,2013-01-18 19:12:00,
2013-01-18 09:22:00,69.0,58.0,29.95,NW,325,2.0,4.0,69,0.00,,,0.00,,2013-01-18 19:22:00,
2013-01-18 09:32:00,70.0,59.0,29.95,NW,325,0.0,1.0,69,0.00,,,0.00,,2013-01-18 19:32:00,
2013-01-18 09:42:00,70.0,59.0,29.95,NW,325,0.0,1.0,69,0.00,,,0.00,,2013-01-18 19:42:00,
2013-01-18 09:53:00,71.0,59.0,29.96,WNW,282,1.0,3.0,67,0.00,,,0.00,,2013-01-18 19:53:00,
2013-01-18 10:02:00,69.0,58.0,29.96,NW,325,3.0,5.0,69,0.00,,,0.00,,2013-01-18 20:02:00,
2013-01-18 10:12:00,69.0,58.0,29.96,NW,325,3.0,5.0,69,0.00,,,0.00,,2013-01-18 20:12:00,
2013-01-18 10:22:00,72.0,58.0,29.97,NNW,339,2.0,6.0,62,0.00,,,0.00,,2013-01-18 20:22:00,
2013-01-18 10:32:00,70.0,58.0,29.97,NW,313,5.0,13.0,65,0.00,,,0.00,,2013-01-18 20:32:00,
2013-01-18 10:42:00,70.0,58.0,29.97,NW,313,5.0,13.0,65,0.00,,,0.00,,2013-01-18 20:42:00,
2013-01-18 10:53:00,71.0,59.0,29.96,NW,322,3.0,12.0,65,0.00,,,0.00,,2013-01-18 20:53:00,
2013-01-18 11:02:00,71.0,59.0,29.96,NW,320,8.0,15.0,66,0.00,,,0.00,,2013-01-18 21:02:00,
2013-01-18 11:12:00,71.0,59.0,29.96,NW,320,8.0,15.0,66,0.00,,,0.00,,2013-01-18 21:12:00,
2013-01-18 11:22:00,72.0,59.0,29.96,North,360,2.0,11.0,64,0.00,,,0.00,,2013-01-18 21:22:00,
2013-01-18 11:32:00,73.0,59.0,29.95,West,273,4.0,11.0,62,0.00,,,0.00,,2013-01-18 21:32:00,
2013-01-18 11:42:00,73.0,59.0,29.95,West,273,4.0,11.0,62,0.00,,,0.00,,2013-01-18 21:42:00,
2013-01-18 11:52:00,72.0,58.0,29.94,NNW,331,6.0,11.0,62,0.00,,,0.00,,2013-01-18 21:52:00,
2013-01-18 12:02:00,72.0,58.0,29.93,NNW,348,5.0,13.0,62,0.00,,,0.00,,2013-01-18 22:02:00,
2013-01-18 12:11:00,72.0,58.0,29.93,NNW,348,5.0,13.0,62,0.00,,,0.00,,2013-01-18 22:11:00,
2013-01-18 12:22:00,74.0,60.0,29.92,WNW,287,3.0,10.0,61,0.00,,,0.00,,2013-01-18 22:22:00,
2013-01-18 12:32:00,75.0,60.0,29.91,NNE,15,6.0,12.0,59,0.00,,,0.00,,2013-01-18 22:32:00,
2013-01-18 12:42:00,75.0,60.0,29.91,NNE,15,6.0,12.0,59,0.00,,,0.00,,2013-01-18 22:42:00,
2013-01-18 12:52:00,74.0,59.0,29.91,NNW,348,2.0,11.0,59,0.00,,,0.00,,2013-01-18 22:52:00,
2013-01-18 13:02:00,75.0,59.0,29.90,West,273,3.0,10.0,57,0.00,,,0.00,,2013-01-18 23:02:00,
2013-01-18 13:11:00,75.0,59.0,29.90,West,273,3.0,10.0,57,0.00,,,0.00,,2013-01-18 23:11:00,
2013-01-18 13:22:00,74.0,57.0,29.88,East,89,3.0,8.0,55,0.00,,,0.00,,2013-01-18 23:22:00,
2013-01-18 13:32:00,75.0,61.0,29.88,SE,132,6.0,11.0,61,0.00,,,0.00,,2013-01-18 23:32:00,
2013-01-18 13:42:00,75.0,61.0,29.88,SE,132,6.0,11.0,61,0.00,,,0.00,,2013-01-18 23:42:00,
2013-01-18 13:52:00,74.0,61.0,29.86,South,169,2.0,9.0,65,0.00,,,0.00,,2013-01-18 23:52:00,
2013-01-18 14:02:00,74.0,61.0,29.85,SSE,150,5.0,12.0,63,0.00,,,0.00,,2013-01-19 00:02:00,
2013-01-18 14:12:00,74.0,61.0,29.85,SSE,150,5.0,12.0,63,0.00,,,0.00,,2013-01-19 00:12:00,
2013-01-18 14:22:00,75.0,61.0,29.85,SSW,208,4.0,10.0,62,0.00,,,0.00,,2013-01-19 00:22:00,
2013-01-18 14:32:00,75.0,62.0,29.85,SE,145,6.0,13.0,63,0.00,,,0.00,,2013-01-19 00:32:00,
2013-01-18 14:42:00,75.0,62.0,29.85,SE,145,6.0,13.0,63,0.00,,,0.00,,2013-01-19 00:42:00,
2013-01-18 14:53:00,74.0,62.0,29.84,South,176,2.0,12.0,66,0.00,,,0.00,,2013-01-19 00:53:00,
2013-01-18 15:02:00,74.0,61.0,29.84,SE,140,5.0,12.0,64,0.00,,,0.00,,2013-01-19 01:02:00,
2013-01-18 15:12:00,74.0,61.0,29.84,SE,140,5.0,12.0,64,0.00,,,0.00,,2013-01-19 01:12:00,
2013-01-18 15:22:00,74.0,61.0,29.84,ESE,117,5.0,10.0,65,0.00,,,0.00,,2013-01-19 01:22:00,
2013-01-18 15:32:00,73.0,61.0,29.85,SSE,156,4.0,8.0,66,0.00,,,0.00,,2013-01-19 01:32:00,
2013-01-18 15:42:00,73.0,61.0,29.85,SSE,156,4.0,8.0,66,0.00,,,0.00,,2013-01-19 01:42:00,
2013-01-18 15:52:00,73.0,61.0,29.85,SSW,196,1.0,8.0,67,0.00,,,0.00,,2013-01-19 01:52:00,
2013-01-18 16:02:00,72.0,61.0,29.85,SE,132,6.0,10.0,68,0.00,,,0.00,,2013-01-19 02:02:00,
2013-01-18 16:12:00,72.0,61.0,29.85,SE,132,6.0,10.0,68,0.00,,,0.00,,2013-01-19 02:12:00,
2013-01-18 16:22:00,72.0,62.0,29.86,SE,129,4.0,6.0,70,0.00,,,0.00,,2013-01-19 02:22:00,
2013-01-18 16:32:00,72.0,62.0,29.87,SE,135,0.0,5.0,70,0.00,,,0.00,,2013-01-19 02:32:00,
2013-01-18 16:42:00,72.0,62.0,29.87,SE,135,0.0,5.0,70,0.00,,,0.00,,2013-01-19 02:42:00,
2013-01-18 16:53:00,72.0,60.0,29.87,SE,133,0.0,3.0,66,0.00,,,0.00,,2013-01-19 02:53:00,
2013-01-18 17:02:00,72.0,61.0,29.87,South,187,2.0,8.0,68,0.00,,,0.00,,2013-01-19 03:02:00,
2013-01-18 17:12:00,72.0,61.0,29.87,South,187,2.0,8.0,68,0.00,,,0.00,,2013-01-19 03:12:00,
2013-01-18 17:22:00,71.0,61.0,29.87,NNE,17,0.0,5.0,71,0.00,,,0.00,,2013-01-19 03:22:00,
2013-01-18 17:32:00,71.0,62.0,29.88,NNE,25,1.0,5.0,72,0.00,,,0.00,,2013-01-19 03:32:00,
2013-01-18 17:42:00,71.0,62.0,29.88,NNE,25,1.0,5.0,72,0.00,,,0.00,,2013-01-19 03:42:00,
2013-01-18 17:52:00,71.0,62.0,29.88,NNE,26,4.0,10.0,73,0.00,,,0.00,,2013-01-19 03:52:00,
2013-01-18 18:02:00,70.0,61.0,29.88,NNE,19,3.0,9.0,73,0.00,,,0.00,,2013-01-19 04:02:00,
2013-01-18 18:12:00,70.0,61.0,29.88,NNE,19,3.0,9.0,73,0.00,,,0.00,,2013-01-19 04:12:00,
2013-01-18 18:22:00,70.0,61.0,29.88,NNE,24,3.0,8.0,72,0.00,,,0.00,,2013-01-19 04:22:00,
2013-01-18 18:32:00,70.0,61.0,29.89,West,273,5.0,10.0,72,0.00,,,0.00,,2013-01-19 04:32:00,
2013-01-18 18:42:00,70.0,61.0,29.89,West,273,5.0,10.0,72,0.00,,,0.00,,2013-01-19 04:42:00,
2013-01-18 18:52:00,70.0,60.0,29.90,West,279,7.0,13.0,71,0.00,,,0.00,,2013-01-19 04:52:00,
2013-01-18 19:03:00,70.0,59.0,29.91,NW,322,8.0,18.0,69,0.00,,,0.00,,2013-01-19 05:03:00,
2013-01-18 19:12:00,70.0,59.0,29.91,NW,322,8.0,18.0,69,0.00,,,0.00,,2013-01-19 05:12:00,
2013-01-18 19:22:00,70.0,59.0,29.91,NW,313,5.0,16.0,69,0.00,,,0.00,,2013-01-19 05:22:00,
2013-01-18 19:32:00,69.0,59.0,29.92,West,276,4.0,10.0,71,0.00,,,0.00,,2013-01-19 05:32:00,
2013-01-18 19:42:00,69.0,59.0,29.92,West,276,4.0,10.0,71,0.00,,,0.00,,2013-01-19 05:42:00,
2013-01-18 19:53:00,69.0,61.0,29.92,NW,326,7.0,11.0,75,0.00,,,0.00,,2013-01-19 05:53:00,
2013-01-18 20:02:00,68.0,60.0,29.93,WNW,286,8.0,15.0,76,0.00,,,0.00,,2013-01-19 06:02:00,
2013-01-18 20:11:00,68.0,60.0,29.93,WNW,286,8.0,15.0,76,0.00,,,0.00,,2013-01-19 06:11:00,
2013-01-18 20:22:00,69.0,61.0,29.93,WNW,286,4.0,13.0,76,0.00,,,0.00,,2013-01-19 06:22:00,
2013-01-18 20:32:00,68.0,60.0,29.93,North,360,7.0,26.0,76,0.00,,,0.00,,2013-01-19 06:32:00,
2013-01-18 20:42:00,68.0,60.0,29.93,North,360,7.0,26.0,76,0.00,,,0.00,,2013-01-19 06:42:00,
2013-01-18 20:53:00,69.0,61.0,29.93,WNW,289,5.0,15.0,75,0.00,,,0.00,,2013-01-19 06:53:00,
2013-01-18 21:02:00,69.0,60.0,29.94,NW,321,8.0,19.0,73,0.00,,,0.00,,2013-01-19 07:02:00,
2013-01-18 21:11:00,69.0,60.0,29.94,NW,321,8.0,19.0,73,0.00,,,0.00,,2013-01-19 07:11:00,
2013-01-18 21:22:00,69.0,60.0,29.93,West,277,8.0,19.0,73,0.00,,,0.00,,2013-01-19 07:22:00,
2013-01-18 21:32:00,68.0,58.0,29.93,ENE,76,6.0,17.0,71,0.00,,,0.00,,2013-01-19 07:32:00,
2013-01-18 21:42:00,68.0,58.0,29.93,ENE,76,6.0,17.0,71,0.00,,,0.00,,2013-01-19 07:42:00,
2013-01-18 21:52:00,68.0,58.0,29.93,East,90,11.0,21.0,70,0.00,,,0.00,,2013-01-19 07:52:00,
2013-01-18 22:02:00,68.0,57.0,29.94,West,267,8.0,18.0,69,0.00,,,0.00,,2013-01-19 08:02:00,
2013-01-18 22:11:00,68.0,57.0,29.94,West,267,8.0,18.0,69,0.00,,,0.00,,2013-01-19 08:11:00,
2013-01-18 22:22:00,68.0,57.0,29.94,West,267,8.0,18.0,69,0.00,,,0.00,,2013-01-19 08:22:00,
2013-01-18 22:32:00,68.0,57.0,29.94,West,267,8.0,18.0,69,0.00,,,0.00,,2013-01-19 08:32:00,
2013-01-18 22:42:00,68.0,57.0,29.94,West,267,8.0,18.0,69,0.00,,,0.00,,2013-01-19 08:42:00,